Location: B�rgermoos
(47.6500°N, 9.0667°E)
Time: 13:57:19
(UTC+00:00)

Vanguard 2 Rocket - Pass Details

Date: 13 August 2021
Orbit: 555 x 3324 km, 32.9° (Epoch: 18 September)

Event Time Altitude Azimuth Distance (km) Brightness Sun altitude
Rises 04:58:06 0° 248° (WSW) 4,409 9.7 5.7°
Reaches altitude 10° 05:02:33 10° 232° (SW) 2,925 9.0 6.4°
Maximum altitude 05:06:54 18° 191° (SSW) 1,945 8.4 7.2°
Drops below altitude 10° 05:10:16 10° 148° (SSE) 2,159 9.1 7.7°
Sets 05:12:54 0° 127° (SE) 2,883 10.1 8.1°
